sat.trackr.live / text

‹ back to catalog

STARLINK-34363

NORAD 64497 · 2025-133AB

PAYLOAD ACTIVE UNKNOWN

§ Identity

Operator
Country
US
Launch date
2025-06-23
Launch site
AFETR
Launch vehicle
Mass (kg)
RCS (m²)

Purposes: comms

External: N2YO · Heavens-Above · Gunter

§ Orbital elements

Epoch: 2026-05-25T02:37:28.435296Z

Period
93.84 min
Inclination
53.1597°
Eccentricity
0.0002052
Mean motion
15.34523443 rev/d
Perigee alt
460.9 km
Apogee alt
463.7 km
Semi-major
6,840.5 km
B*
-2.7026e-3
RAAN
119.3371°
Arg perigee
130.0375°
Mean anomaly
230.0808°
Rev number
5,292

§ Raw data

STARLINK-343631 64497U 25133AB  26145.10935689 -.00090958  00000+0 -27026-2 0  99942 64497  53.1597 119.3371 0002052 130.0375 230.0808 15.34523443 52928

JSON: /api/v1/satellites/64497 · /tle

For live sub-satellite position, see the globe view (requires WebGL).

§ Visibility from observer

Set your observer location to see the next 7 days of passes ≥ 10°. The values pass through the URL so the page stays shareable.

No JS? Fill the form by hand. The geolocation button needs JavaScript.